"Pseudo-MPEC" for P112XIn

Created 2020 Aug 12 8:07:10 UT using Find_Orb

Click here for an explanation of pseudo-MPECs

 
 Astrometry: 
     P112XIn  C2009 06 1655aunt1-7Astrometryd.png0Da`P`3)PID[[A:K1UF%)12AOtkCF51
     P112XIn  C2009 06 16a!gq#V+`,.*aD?\^jmnjMQU9r+4c(O?pR[AUkLoR5y9YruqcC?-pF51
     P112XIn  C2013 08 26qcciHw-P'Y;Bh,H]^76QpbMh%J-3tXP]HR[/(5]u*%=6'TO?D5,-F51
     P112XIn  C2013 08 26W2W?EQwO5y'JbcfQF;[%2r-fG0'o5M(lF'xwVgQ]79GWkGLLM^x4F51
     P112XIn  C2013 10 20$y:4'/*p63b\::4K'eb$cOI1!P8_(Lc(redacted;fQcu6Yf#uq6F51
     P112XIn  C2013 10 256B=!_click6ZHe]3g3KwDx=O;m?NYBI[n9rjWMOGaR2yeS274(h2F51
     P112XIn  C2013 10 25Z,;Oy[#XW'9K@epQmyx.Qe-=rt.`Vvrk(4@'Ix9%-,yLVQ?U)(-HF51
     P112XIn  C2014 10 265$Acf'@bTeEB+k)@Kb'WbSg9sCv!*EjbfTNGNj!9iwxph\jnDqK,F51
     P112XIn  C2014 10 26J9Ew6vR@AC\-Q0.YTdLDaJ:*,^xQU#]%p]W,Y/T,ba]rIp'3BKumF51
     P112XIn  C2014 10 26?%y#W*XZh7Q%n]8Xdld-HSVZD;+s.JRa'/l9i4*@9SX+1BQuH^w!F51
     P112XIn  C2014 10 26np581@1sDcZ%rLb`#\SV:8g6i9'nnvd*4O$H#c((6/!RI$4WZOo!F51
     P112XIn  C2014 11 11?_=XfeMOWQX[+^ncA^rB6uF%RZ.H[MaR,'YDGjO%Z`(I_Au[Wq'\F51
     P112XIn  C2014 11 11I;DKvr2(X:Fk8n[AN:!4X]8q$3R6^3LbNq3$CF-!:Sl,!MMOg(eVF51
     P112XIn  C2014 11 11qDCJ4(]`jf1WjT#wUq+G#,N*6p2TpRdAP-kdi)$3I6k9jH7@BGw(F51
     P112XIn  C2014 12 01P(rFnLj]Px):Af?U5/(yH?yh;!@xQpQpwmqg*!?gpa-ipBxpKQrDF51
     P112XIn  C2014 12 01+;:,[87]bh-_5X's4Fa*ansWkq'pHnS;.9PPg=rN--)'A*B%kjx#F51
     P112XIn  C2014 12 015o^+q8T%-]qIJ4ASj)`Nd[X,:#P8fa?KXW%7eBV9Y''TZq]@EGUWF51
     P112XIn  C2014 12 01-I[^a;JHZuZlUL1w\3j;:qotB-nh.#ypLZTgPX5d-JVbvg_XU)MIF51
     P112XIn  C2014 12 15TvDw]l?lpbvSpd)(Sm5W$xSE7eAlJuiHLL:krdd4a=^KfXm6Kiq7F51
     P112XIn  C2014 12 15/K2!ObDw4qlZCVDXq;v;)Ub_k4_4+PC0cy`%C79n]MlnqJe2@bM#F51
     P112XIn  C2014 12 15qjbb$!vcRtsoM3tp%g?b;1Vf5vS/8Zg/J)KN+G77ue`Hx4s#Ul@pF51
     P112XIn  C2015 01 08Wv7lrjUdJvsuD#eF;AZDXP=6+cVV@,mf%7uiar=6xa:caU?)5['GF51
     P112XIn  C2015 12 18eD]pam'MGYdB:?8[V!BetKTURV@Pmkkaqray?@cbvi`owJ?\EEjQF51
     P112XIn  C2015 12 18Fu\:fM!76s6T52wlN]a%T1yj0xZ1O'`eALmB=m^TfNbV`_HiC/nQF51
     P112XIn  C2016 02 21tmA+k!pu(V:I\-Ey]-A1owrUyaR./)\#JAH%7w.G81)EW]:ju`rxF51
     P112XIn  C2016 11 13oK9!YH*oK.7N3(KuPcaYcc2a^8!0jp[)qnRUcW=T+*]13tgF7_cKF51
     P112XIn  C2016 11 24$^d%n.u)8Fwj!;!ro-R\?l#f^b)^4-CR2k`-uR-LBbgDZ]+here\F51
     P112XIn  C2016 12 315#?UIBu-_$lM1iYC4s*cL76HS#l3`QIPTB_X?Ze$81+ITdFC]P,cF51
     P112XIn  C2017 02 03AB2tXa:00DS)vr=PU'[X6y$Y6.?Ob2#jdVO!s\^I.V?8eGMD7Lp1F51
     P112XIn  C2017 02 035:QNGs\$MeYFG=J/siG_jt]'_Q=JAYeLb)t5eRbQ1cR(3bc;G^RNF51
     P112XIn  C2017 02 038kZU!i''+0!tOS\Zdygm2OIil6*JC;xRWSu^[ZH\TR672T6y!#($F51
     P112XIn  C2017 03 19luv(%FFbyU?R*X3eZp?2`0yn!RJ$5NpdKRCKRF3+U-^_?q$yADf[F51
     P112XIn  C2017 03 19T?PUqT3`(]J-inYv:F'ISe.r73LX1ln?1xO(RbC4Fmv5aU1UU9$cF51
     P112XIn  C2017 03 19Xg[oTa(eSv^dN3GvD:v76eSEQ.UDg.yLb;.'H^eg2Sh8)2,%IwjvF51
     P112XIn  C2017 03 19AeQe,oB:InVdV7f:VSL/A8S$qW!3x]RO#^EyRnG.2#Ex=VRCeM;XF51
     P112XIn  C2018 01 09[?O8ukKM)$`!_oI,#[/#4Yf#xmrVNk`ff+l94JpNfq35As9V\pj)F51
     P112XIn  C2018 01 090?'Xk8,]xMI)?=ri3F/^4EY-86DbZ`kEZL#Kdc.62UOrxbrb,aZnF51
     P112XIn  C2018 01 30yJ8a*R,)2X`^wJFm`XmpaenI80$Dq^lp.*1l7qPI*6a[`.N!@Bq(F51
     P112XIn  C2018 01 30a?+yP/xGmDrU)]H@Uxi_h+t)9H*3D!;,@G_J07rX\j3?M5_\g(uVF51
     P112XIn  C2018 01 303o_LrC`DUVig-;EC_XbfnGI[Pxkcn*j@M*\q__jpU3]b(\,g:nSbF51
     P112XIn  C2019 01 24pVxFUCc#N-C!7YMQrqGM**62fBSZj`w`=O`Lr$)1LI_)TX!+^_AJF51
     P112XIn  C2019 03 28K=#_bc6HZec,8g58x;n!!wUYwV[o`+tWbZ?LJB`j+m(L\t$RiZ-fF51
     P112XIn  C2019 03 285fF*SoD9jV!Ju'NqhV5(Kua#A0^0P050YIpiJteRH6tAm/AuZ684F51
     P112XIn  C2019 03 28WHshyORh_X!.(kY0e%F_F9HAi\8%tL]CE%vu1dZD?iL0)@AbgZbZF51
     P112XIn  C2019 04 22()IdA)_n@\9E2h0P#ToF'dCLA#4V_=%I9.b-NxM0i8`Fl0lMjn7jF51
     P112XIn  C2019 04 227=fn+BSI!VdsIlqIt\l2vl$,^RP,CuC;akF]DI^UeN4oy8i5^!2QF51
     P112XIn  C2019 04 24Yri1Iv/DsJ_epBc@_]FtRfA5JvGUUtEACuPAnTY$Hwx(o^e2=x8+F51
     P112XIn  C2019 04 244-2j'1eJ,okIK4'seUZAPP8F(QR^?_pcf'NjgC5BF`0NYu.4/L/`F51
     P112XIn  C2019 04 24VH,^S^Brwm\cNd-.B8T(H\;Cj*R9lray0n7-g5#RNg`DO(\^e*@'F51
     P112XIn  C2019 04 24104'JZTeYdZKq!:qXly,xO5[gT?-Z!rE5TII.4)rH.D#Ho[:I5GHF51
     P112XIn  C2019 04 25d6)+DH8$#e#l?L';ES=SwAUGVopkp/`G:*J-cML@tEm6Lb[%%hWFF51
     P112XIn  C2019 05 08w$WlN=mfWnZrAYFmy@8F0.Ex43/4dgk0;HM.4_Wn!O64u]3oPZYnF51
     P112XIn  C2019 05 08B$FVkUkUB6f8^mFLR#A--1A\n/RDi191j9B[og7k##)p*hIacVntF51
     P112XIn  C2019 05 12RQia]g*Ho8t7ti$14\hx^Hfac*rX$JcG1F5onodai[XZFm4e:rg[F51
     P112XIn  C2019 05 124Pe,bC0Kkuqj@uT'?0QkbxavcVH*k\[0BwSRIx't$qnTuM67$[S#F51
     P112XIn  C2019 05 12COfSRKDh,T1)-=,`E[dpOrv%Eg$HJ'EyGR+rvtXP_8VHx!]r3iH8F51
     P112XIn  C2019 06 01h5.l8Xs]2uj=mfkL=Ph/-j-bN#4;l]S[ra'0tUH,P8IC$oIuEk^,F51
     P112XIn  C2019 06 016EII]Yo@2*9M2IGgK-=cW:BdqKfor/V2E![c$Bt_.$R6jU7W'ENDF51
     P112XIn  C2019 06 01VC@\-8apHsI.Y('V@ZrTKMl\.7eSG.s)oeje3d[7L;?SqAs5UkDZF51
     P112XIn  C2019 06 01s6=['\4Njb1_'!$;?`RlUqEls;!9\k)SMd5;lYW#r_%vTD6,jkW6F51
     P112XIn  C2020 07 21K#cA$'Z:sdmN(;A;sD32#dfHr8F)(q`E8MsY7LTe/o`JB_8Tb@dlF51
     P112XIn  C2020 07 21Wu_t5+fT2_3fP_@HiVM2;e@XgaBCSyF)9tx`rd_*Py$FGm#tYr9*F51
     P112XIn  C2020 07 21Z;M$H$+sRJqexplanation8v5l\?C[Ci\kF1JsJ$#_s*=v1u'^MQF51
     P112XIn ^C2020 07 24.30834014 49 16.611+10 48 10.63   ~7OKM 21.95GVNEOCP568
     P112XIn ^C2020 07 24.30951914 49 16.621+10 48 10.05   ~7OKM 22.04GVNEOCP568
     P112XIn ^C2020 07 24.31069914 49 16.624+10 48 09.56   ~7OKM 22.07GVNEOCP568
     P112XIn ^C2020 08 12.25925514 52 50.086+08 20 15.62   ~8C6q 22.31GVNEOCP568
     P112XIn ^C2020 08 12.26077914 52 50.114+08 20 14.91   ~8C6q 22.27GVNEOCP568
     P112XIn ^C2020 08 12.26230714 52 50.138+08 20 14.16   ~8C6q 22.45GVNEOCP568
     P112XIn ^C2020 08 12.26383414 52 50.167+08 20 13.47   ~8C6q 22.31GVNEOCP568

Station data:
(568) Mauna Kea  (N19.826116 W155.472200)  US/Hawaii.
(F51) Pan-STARRS 1, Haleakala  (N20.707235 W156.255910)  US/Hawaii.
   Observers N. Primak, A. Schultz, S. Watters, J. Thiel, T. Goggia. Measurer
   PS1 Science Consortium. 1.8-m Ritchey-Chrétien + CCD.

Orbital elements:  P112XIn
   Perihelion 2024 Mar 1.145196 +/- 0.00465 TT =  3:29:05 (JD 2460370.645196)
Epoch 2020 Aug 12.0 TT = JDT 2459073.5   Ju: 0.1419           AutoNEOCP
M 251.68189958 +/- 0.00037          (J2000 ecliptic)
n   0.08350499 +/- 1.93e-8          Peri.  249.62293 +/- 0.00034
a   5.18395337 +/- 7.98e-7          Node    87.66813 +/- 0.000030
e   0.0483642 +/- 1.81e-7           Incl.   36.26168 +/- 0.000016
P  11.80                   H 14.7   G  0.15   U  1.0  
q 4.93323518 +/- 1.33e-6    Q 5.43467156 +/- 1.11e-6
From 70 observations 2009 June 16-2020 Aug. 12; mean residual 0".17
Residuals in arcseconds: 
090616 F51  .14+  .17-    160221 F51  .02-  .52+    190424 F51  .05-  .01+    
090616 F51  .16-  .15+    161113 F51  .01+  .25-    190424 F51  .02+  .19+    
130826 F51  .09-  .19-    161124 F51  .28-  .24-    190425 F51  .08-  .17+    
130826 F51  .37+  .01-    161231 F51  .18+  .18+    190508 F51  .02-  .04-    
131020 F51  .07-  .13+    170203 F51  .22+  .04+    190508 F51  .02+  .04-    
131025 F51  .01-  .08-    170203 F51  .89-  .37+    190512 F51  .14+  .02+    
131025 F51  .06-  .10-    170203 F51  .12-  .15-    190512 F51  .08+  .10-    
141026 F51  .03+  .20-    170319 F51  .03+  .22-    190512 F51  .04+  .05-    
141026 F51  .23+  .20+    170319 F51  .29+  .18+    190601 F51  .02+  .06+    
141026 F51  .16+  .07-    170319 F51  .04-  .24-    190601 F51  .04+  .16-    
141026 F51  .06+  .09+    170319 F51  .05+  .06+    190601 F51  .00   .06-    
141111 F51  .01-  .17-    180109 F51  .04+  .18-    190601 F51  .07+  .13-    
141111 F51  .09-  .06-    180109 F51  .02+  .36-    200721 F51  .06+  .12+    
141111 F51  .24-  .03+    180130 F51  .26+  .20-    200721 F51  .07+  .03+    
141201 F51  .18-  .09-    180130 F51  .28-  .10+    200721 F51  .08-  .00     
141201 F51  .02+  .14+    180130 F51  .13-  .08-    200724 568  .02-  .05+    
141201 F51  .04-  .01-    190124 F51  .02-  .08+    200724 568  .05+  .01+    
141201 F51  .28+  .13-    190328 F51  .06+  .02-    200724 568  .02+  .06+    
141215 F51  .26+  .17+    190328 F51  .11+  .14-    200812 568  .01+  .04+    
141215 F51  .04+  .36-    190328 F51  .26-  .01+    200812 568  .04+  .06+    
141215 F51  .00   .06-    190422 F51  .05-  .09-    200812 568  .02+  .03+    
150108 F51  .06+  .15+    190422 F51  .09+  .18-    200812 568  .07+  .07+    
151218 F51  .02+  .05+    190424 F51  .03-  .01-    
151218 F51  .47-  .41+    190424 F51  .02-  .17+    

Ephemerides (geocentric):
Date (UTC) HH   RA              Dec         delta   r     elong  mag " sig PA
---- -- -- --  -------------   -----------  ------ ------ -----  --- ---- ---
2020 08 12 08  14 52 51.430   +08 19 40.79  5.3676 5.2733  79.2 22.6 .033  36
2020 08 12 09  14 52 52.154   +08 19 21.02  5.3682 5.2733  79.2 22.6 .033  36
2020 08 12 10  14 52 52.878   +08 19 01.24  5.3687 5.2733  79.2 22.6 .033  36
2020 08 12 11  14 52 53.604   +08 18 41.47  5.3693 5.2733  79.1 22.6 .033  36
2020 08 12 12  14 52 54.331   +08 18 21.70  5.3699 5.2733  79.1 22.6 .033  36
2020 08 12 13  14 52 55.059   +08 18 01.92  5.3704 5.2732  79.1 22.6 .033  36
2020 08 12 14  14 52 55.788   +08 17 42.15  5.3710 5.2732  79.1 22.6 .033  36
2020 08 12 15  14 52 56.518   +08 17 22.37  5.3716 5.2732  79.0 22.6 .033  36
2020 08 12 16  14 52 57.249   +08 17 02.59  5.3721 5.2732  79.0 22.6 .033  36
2020 08 12 17  14 52 57.981   +08 16 42.82  5.3727 5.2732  79.0 22.6 .033  36
2020 08 12 18  14 52 58.714   +08 16 23.04  5.3733 5.2732  78.9 22.6 .033  36
2020 08 12 19  14 52 59.448   +08 16 03.26  5.3738 5.2732  78.9 22.6 .033  36
2020 08 12 20  14 53 00.184   +08 15 43.49  5.3744 5.2732  78.9 22.6 .033  36
2020 08 12 21  14 53 00.920   +08 15 23.71  5.3750 5.2731  78.8 22.6 .033  36
2020 08 12 22  14 53 01.657   +08 15 03.93  5.3755 5.2731  78.8 22.6 .033  36
2020 08 12 23  14 53 02.396   +08 14 44.15  5.3761 5.2731  78.8 22.6 .033  36
